Location: Hermaringen
(48.5952°N, 10.2585°E)
Time: 01:21:22
(UTC+00:00)

Transit 2A - All Passes

Search period start: 07 February 2026 00:00
Search period end: 17 February 2026 00:00
Orbit: 589 x 955 km, 66.7° (Epoch: 6 February)

Date Brightness Start Highest point End Pass type
(mag) Time Alt. Az. Time Alt. Az. Time Alt. Az.
7 Feb - 00:04:29 10° NW 00:10:04 38° WSW 00:15:12 10° S night (unlit)
7 Feb - 13:04:35 10° SE 13:08:31 18° ESE 13:12:33 10° ENE daylight
7 Feb - 14:44:36 10° SSW 14:50:44 85° ESE 14:57:07 10° NE daylight
7 Feb - 16:29:12 10° W 16:34:37 30° NW 16:40:06 10° NNE daylight
7 Feb - 18:16:14 10° NW 18:19:51 15° N 18:23:26 10° NNE visible
7 Feb - 20:01:35 10° NNW 20:05:35 17° NNE 20:09:28 10° NE visible
7 Feb - 21:44:42 10° NNW 21:50:30 39° NE 21:55:55 10° ESE visible
7 Feb - 23:27:56 10° NW 23:33:53 54° WSW 23:39:19 10° SSE night (unlit)
8 Feb - 12:30:19 10° ESE 12:32:33 12° E 12:34:49 10° ENE daylight
8 Feb - 14:08:25 10° SSW 14:14:25 63° ESE 14:20:41 10° NE daylight
8 Feb - 15:52:15 10° WSW 15:57:57 37° NW 16:03:47 10° NNE daylight
8 Feb - 17:39:00 10° NW 17:42:57 17° NNW 17:46:53 10° NNE visible
8 Feb - 19:25:03 10° NNW 19:28:41 16° N 19:32:15 10° NE visible
8 Feb - 21:08:24 10° NNW 21:13:52 31° NE 21:19:01 10° E visible
8 Feb - 22:51:28 10° NW 22:57:36 75° WSW 23:03:14 10° SSE visible
9 Feb - 00:36:39 10° WNW 00:39:34 14° W 00:42:23 10° SW night (unlit)
9 Feb - 13:32:26 10° S 13:38:11 45° ESE 13:44:11 10° NE daylight
9 Feb - 15:15:25 10° WSW 15:21:22 46° NW 15:27:29 10° NNE daylight
9 Feb - 17:01:44 10° WNW 17:06:05 19° NNW 17:10:26 10° NNE visible
9 Feb - 18:48:22 10° NNW 18:51:46 15° N 18:55:06 10° NE visible
9 Feb - 20:32:04 10° NNW 20:37:10 25° NNE 20:42:00 10° E visible
9 Feb - 22:15:03 10° NW 22:21:16 81° NE 22:26:56 10° SE visible
9 Feb - 23:59:18 10° WNW 00:03:35 21° WSW 00:07:39 10° SSW night (unlit)
10 Feb - 12:56:42 10° S 13:02:02 33° ESE 13:07:33 10° NE daylight
10 Feb - 14:38:45 10° SW 14:44:51 61° NW 14:51:10 10° NNE daylight
10 Feb - 16:24:30 10° WNW 16:29:16 22° NNW 16:34:04 10° NNE daylight
10 Feb - 18:11:30 10° NNW 18:14:50 14° N 18:18:07 10° NNE visible
10 Feb - 19:55:44 10° NNW 20:00:23 21° NNE 20:04:52 10° ENE visible
10 Feb - 21:38:41 10° NNW 21:44:50 60° NE 21:50:27 10° SE visible
10 Feb - 23:22:25 10° NW 23:27:32 30° WSW 23:32:19 10° SSW night (unlit)
11 Feb - 12:21:16 10° SSE 12:25:56 23° ESE 12:30:44 10° ENE daylight
11 Feb - 14:02:14 10° SW 14:08:25 80° NW 14:14:48 10° NE daylight
11 Feb - 15:47:21 10° W 15:52:31 26° NNW 15:57:44 10° NNE daylight
11 Feb - 17:34:27 10° NW 17:37:54 15° N 17:41:17 10° NNE visible
11 Feb - 19:19:20 10° NNW 19:23:34 18° NNE 19:27:40 10° ENE visible
11 Feb - 21:02:22 10° NNW 21:08:19 46° NE 21:13:48 10° ESE visible
11 Feb - 22:45:45 10° NW 22:51:24 42° WSW 22:56:37 10° S visible
12 Feb - 11:46:21 10° SE 11:49:55 16° ESE 11:53:34 10° ENE daylight
12 Feb - 13:25:54 10° SSW 13:32:03 78° ESE 13:38:24 10° NE daylight
12 Feb - 15:10:17 10° W 15:15:49 32° NW 15:21:24 10° NNE daylight
12 Feb - 16:57:17 10° NW 17:00:58 16° NNW 17:04:38 10° NNE visible
12 Feb - 18:42:52 10° NNW 18:46:42 16° NNE 18:50:26 10° NE visible
12 Feb - 20:26:03 10° NNW 20:31:43 36° NE 20:37:00 10° ESE visible
12 Feb - 22:09:13 10° NW 22:15:12 60° WSW 22:20:40 10° SSE visible
12 Feb - 23:56:33 10° W 23:56:54 10° W 23:57:15 10° WSW night (unlit)
13 Feb - 11:12:49 10° ESE 11:13:58 11° E 11:15:08 10° E daylight
13 Feb - 12:49:46 10° SSW 12:55:45 57° ESE 13:01:57 10° NE daylight
13 Feb - 14:33:21 10° WSW 14:39:10 39° NW 14:45:06 10° NNE daylight
13 Feb - 16:20:01 10° WNW 16:24:05 17° NNW 16:28:07 10° NNE daylight
13 Feb - 18:06:17 10° NNW 18:09:48 15° N 18:13:14 10° NE visible
13 Feb - 19:49:43 10° NNW 19:55:03 29° NE 20:00:04 10° E visible
13 Feb - 21:32:45 10° NW 21:38:54 82° WSW 21:44:30 10° SSE visible
13 Feb - 23:17:36 10° WNW 23:20:58 16° WSW 23:24:11 10° SW night (unlit)
14 Feb - 12:13:52 10° S 12:19:32 41° ESE 12:25:24 10° NE daylight
14 Feb - 13:56:34 10° WSW 14:02:36 50° NW 14:08:47 10° NNE daylight
14 Feb - 15:42:45 10° WNW 15:47:14 20° NNW 15:51:42 10° NNE daylight
14 Feb - 17:29:32 10° NNW 17:32:52 14° N 17:36:08 10° NE visible
14 Feb - 19:13:24 10° NNW 19:18:19 24° NNE 19:23:00 10° E visible
14 Feb - 20:56:22 10° NNW 21:02:31 74° NE 21:08:08 10° SE visible
14 Feb - 22:40:26 10° WNW 22:44:57 23° WSW 22:49:13 10° SSW visible
15 Feb - 11:38:13 10° SSE 11:43:23 29° ESE 11:48:43 10° NE daylight
15 Feb - 13:19:57 10° SW 13:26:07 66° NW 13:32:27 10° NNE daylight
15 Feb - 15:05:31 10° W 15:10:26 23° NNW 15:15:21 10° NNE daylight
15 Feb - 16:52:37 10° NW 16:55:55 14° N 16:59:12 10° NNE daylight
15 Feb - 18:37:02 10° NNW 18:41:32 20° NNE 18:45:50 10° ENE visible
15 Feb - 20:20:01 10° NNW 20:26:03 55° NE 20:31:36 10° SE visible
15 Feb - 22:03:37 10° NW 22:08:53 33° WSW 22:13:45 10° S visible
16 Feb - 11:02:54 10° SSE 11:07:19 21° ESE 11:11:50 10° ENE daylight
16 Feb - 12:43:29 10° SW 12:49:41 87° WNW 12:56:05 10° NE daylight
16 Feb - 14:28:22 10° W 14:33:41 28° NNW 14:39:00 10° NNE daylight
16 Feb - 16:15:31 10° NW 16:18:59 15° N 16:22:25 10° NNE daylight
16 Feb - 18:00:37 10° NNW 18:04:41 18° NNE 18:08:36 10° ENE visible
16 Feb - 19:43:40 10° NNW 19:49:31 42° NE 19:54:54 10° ESE visible
16 Feb - 21:26:59 10° NW 21:32:44 47° WSW 21:37:58 10° S visible
